Location: Newark
(40.7066°N, 111.8219°W)
Time: 12:45:50
(UTC+00:00)

Transit 2A Rocket - Pass Details

Date: 23 November 2019
Orbit: 594 x 909 km, 66.7° (Epoch: 13 December)

Event Time Altitude Azimuth Distance (km) Brightness Sun altitude
Rises 11:45:58 0° 343° (NNW) 2,847 - -29.5°
Reaches altitude 10° 11:48:42 10° 0° (N) 1,956 - -29.0°
Exits shadow 11:50:29 17° 22° (NNE) 1,544 6.7 -28.6°
Maximum altitude 11:51:59 20° 49° (NE) 1,427 6.8 -28.3°
Drops below altitude 10° 11:55:22 10° 98° (E) 2,028 8.2 -27.7°
Sets 11:58:14 0° 114° (ESE) 2,984 9.2 -27.1°
